www.pogodaiklimat.ru

Погода и климат >> Архив погоды >> Франция >> Сете


ПОГОДА в Сете

  • Прогноз погоды в Сете
  • Монитор погоды в Сете

АРХИВ ПОГОДЫ в Сете

Время (UTC), дата Ветер
(напр.,м/с)
 
Видим.   Явления Облачность Т
(С)
Тd
(С)
f
(%)
Тe
(С)
Тes
(С)
Комфортность P
(гПа)
Po
(гПа)
Тmin
(С)
Tmax
(С)
R
(мм)
R24
(мм)
S
(см)
13 15.09 В 1-2
{2}
н/о н/о +25.5 +14.9 52 +28 +28 жарко 1023.4 1014.5
14 15.09 ЮВ 1-1
{2}
н/о н/о +25.1 +14.8 53 +28 +28 жарко 1022.8 1013.9
15 15.09 Ю 1-2
{2}
н/о н/о +26.4 +13.5 45 +28 +28 жарко 1022.6 1013.7
16 15.09 Ю 1-2
{2}
н/о н/о +25.3 +11.8 43 +27 +27 жарко 1022.1 1013.2
17 15.09 Ю 1-1
{2}
н/о н/о +24.1 +11.4 45 +26 +26 жарко 1021.5 1012.6
18 15.09 С 2
{3}
15 км 4/0 2000 м
[Ac cast]
+23.8 +11.8 47 +25 +25 комфорт 1021.2 1012.3 +20.2 +27.0
19 15.09 С 2-2
{2}
н/о н/о +23.7 +12.7 50 +26 +26 жарко 1021.2 1012.3
20 15.09 С 1-2
{2}
н/о н/о +23.6 +14.3 56 +26 +26 жарко 1021.0 1012.1
21 15.09 штиль 0-1
{2}
н/о н/о +22.9 +14.2 58 +26 +26 жарко 1021.3 1012.3
22 15.09 Ю 1-1
{1}
н/о н/о +22.3 +13.9 59 +25 +25 комфорт 1021.5 1012.5
23 15.09 ЮЗ 1-1
{1}
н/о н/о +21.3 +13.5 61 +24 +24 комфорт 1021.2 1012.2
00 16.09 З 2-2
{2}
н/о н/о +21.8 +12.4 55 +24 +24 комфорт 1021.2 1012.2
01 16.09 ЮЗ 2-2
{2}
н/о н/о +21.8 +11.5 52 +24 +24 комфорт 1020.8 1011.8
02 16.09 З 2-2
{2}
н/о н/о +22.0 +11.1 50 +24 +24 комфорт 1020.5 1011.5
03 16.09 СЗ 2-3
{3}
н/о н/о +22.2 +13.0 56 +25 +25 комфорт 1020.2 1011.2
04 16.09 СЗ 2-3
{3}
н/о н/о +21.7 +12.3 55 +24 +24 комфорт 1019.9 1010.9
05 16.09 СЗ 1-1
{3}
н/о н/о +21.7 +13.8 61 +25 +25 комфорт 1019.8 1010.8
06 16.09 С 2
{5}
15 км ясно +21.7 +13.3 59 +24 +24 комфорт 1020.0 1011.0 +21.3 +23.8
07 16.09 С 1-1
{2}
н/о н/о +22.1 +14.5 62 +25 +25 комфорт 1020.0 1011.0
08 16.09 В 1-2
{2}
н/о н/о +22.6 +15.2 63 +26 +26 жарко 1020.3 1011.3
09 16.09 В 1-2
{2}
15 км ясно +24.4 +15.1 56 +27 +36 жарко 1020.2 1011.3
10 16.09 В 1-2
{2}
н/о н/о +25.4 +13.3 47 +27 +27 жарко 1020.0 1011.1
11 16.09 Ю 2-3
{3}
н/о н/о +25.3 +15.9 56 +29 +29 душно 1019.7 1010.8
12 16.09 Ю 2-3
{4}
8000 м ясно +23.9 +16.2 62 +27 +41 жарко 1019.1 1010.2
13 16.09 ЮЗ 2-4
{4}
н/о н/о +24.0 +17.7 68 +28 +28 душно 1018.7 1009.8
14 16.09 ЮЗ 3-4
{4}
н/о н/о +23.8 +17.3 67 +28 +28 душно 1018.1 1009.2
15 16.09 ЮЗ 2-3
{4}
15 км ясно +23.8 +16.3 63 +27 +33 жарко 1017.5 1008.6
16 16.09 ЮЗ 2-3
{4}
н/о н/о +23.5 +15.8 62 +27 +27 душно 1017.3 1008.4
17 16.09 ЮЗ 3-4
{4}
н/о н/о +22.6 +16.6 69 +27 +27 душно 1017.0 1008.1
18 16.09 З 3
{6}
15 км ясно +22.2 +17.3 74 +27 +27 душно 1017.2 1008.3 +21.2 +26.1
19 16.09 ЮЗ 3-4
{4}
н/о н/о +22.5 +16.3 68 +27 +27 душно 1017.6 1008.7
20 16.09 З 3-4
{4}
н/о н/о +22.1 +16.4 70 +26 +26 душно 1017.5 1008.6
21 16.09 З 2-3
{4}
н/о н/о +22.1 +17.0 73 +27 +27 душно 1017.5 1008.6
22 16.09 З 2-4
{4}
н/о н/о +22.3 +16.1 68 +26 +26 жарко 1017.4 1008.5
23 16.09 З 2-3
{3}
н/о н/о +23.4 +13.6 54 +27 +27 душно 1017.1 1008.2
00 17.09 З 3-4
{4}
н/о н/о +23.6 +13.2 52 +26 +26 жарко 1016.7 1007.8
01 17.09 СЗ 1-3
{4}
н/о н/о +23.9 +10.6 43 +25 +25 комфорт 1016.6 1007.7
02 17.09 В 1-1
{3}
н/о н/о +21.6 +15.9 70 +25 +25 комфорт 1016.4 1007.4
03 17.09 С 1-2
{2}
н/о н/о +20.1 +15.7 76 +24 +24 комфорт 1016.1 1007.1
04 17.09 С 2-3
{3}
н/о н/о +19.7 +14.3 71 +22 +22 комфорт 1016.2 1007.2
05 17.09 С 2-3
{4}
н/о н/о +19.4 +15.7 79 +22 +22 комфорт 1016.3 1007.3
06 17.09 С 2
{8}
15 км ясно +20.2 +14.8 71 +23 +23 комфорт 1016.5 1007.5 +19.4 +24.3
07 17.09 С 2-3
{3}
н/о н/о +21.7 +14.1 62 +25 +25 комфорт 1016.5 1007.5
08 17.09 СВ 1-2
{3}
н/о н/о +24.2 +13.4 51 +26 +26 жарко 1016.7 1007.8
09 17.09 ЮЗ 2-3
{3}
15 км ясно +25.5 +14.0 49 +28 +35 жарко 1016.9 1008.0
10 17.09 ЮЗ 2-3
{3}
н/о н/о +25.6 +15.9 55 +29 +29 душно 1016.6 1007.8
11 17.09 ЮЗ 2-4
{4}
н/о н/о +25.7 +15.4 53 +29 +29 душно 1016.0 1007.2
12 17.09 ЮЗ 3-4
{4}
20 км ясно +25.7 +13.9 48 +28 +39 жарко 1015.4 1006.6
13 17.09 ЮЗ 3-4
{4}
н/о н/о +26.8 +13.2 43 +29 +29 жарко 1014.7 1005.9
14 17.09 ЮЗ 3-4
{4}
н/о н/о +26.4 +13.8 46 +29 +29 жарко 1014.3 1005.5
15 17.09 ЮЗ 2-4
{5}
20 км 1/1 1500 м
[Cu hum]
+27.6 +13.9 43 +30 +34 жарко 1013.7 1004.9
16 17.09 ЮЗ 3-5
{5}
н/о н/о +24.7 +15.1 55 +28 +28 душно 1013.3 1004.5
17 17.09 ЮЗ 3-5
{5}
н/о н/о +24.6 +14.4 53 +27 +27 жарко 1012.9 1004.1
18 17.09 З 3
{10}
15 км 4/4 1500 м
[Cu med, cong]
+23.8 +18.4 72 +28 +28 душно 1012.9 1004.1 +20.2 +27.6
19 17.09 ЮЗ 3-5
{6}
н/о н/о +22.6 +17.1 71 +27 +27 душно 1013.5 1004.6
20 17.09 СЗ 1-3
{5}
н/о н/о +22.8 +16.3 67 +27 +27 душно 1013.8 1004.9
21 17.09 С 2-3
{4}
н/о н/о +22.4 +16.2 68 +27 +27 душно 1013.9 1005.0
22 17.09 С 2-2
{3}
н/о н/о +24.5 +13.1 49 +27 +27 жарко 1014.1 1005.2
23 17.09 СВ 1-2
{2}
н/о н/о +22.2 +16.5 70 +26 +26 душно 1014.5 1005.6
00 18.09 СВ 1-2
{2}
н/о н/о +22.0 +16.3 70 +26 +26 душно 1014.5 1005.6
01 18.09 С 2-3
{3}
н/о н/о +21.6 +17.6 78 +26 +26 душно 1014.3 1005.4
02 18.09 СВ 2-3
{3}
н/о н/о +21.8 +16.1 70 +26 +26 душно 1014.0 1005.1
03 18.09 С 2-3
{3}
н/о н/о +22.2 +14.3 61 +25 +25 комфорт 1013.8 1004.9
04 18.09 С 2-4
{4}
н/о н/о +22.7 +11.7 50 +25 +25 комфорт 1013.9 1005.0
05 18.09 С 3-4
{4}
н/о н/о +22.3 +12.0 52 +25 +25 комфорт 1013.8 1004.9
06 18.09 С 2
{6}
15 км 4/0
[Ac trans]
+21.9 +12.2 54 +24 +24 комфорт 1014.2 1005.3 +21.5 +24.5
07 18.09 СВ 1-2
{3}
н/о н/о +22.1 +12.4 54 +25 +25 комфорт 1015.1 1006.2
08 18.09 В 1-1
{2}
н/о н/о +23.9 +13.1 51 +26 +26 жарко 1015.6 1006.7
09 18.09 В 1-2
{2}
н/о н/о +25.2 +13.1 47 +27 +27 жарко 1015.5 1006.6
10 18.09 Ю 1-2
{2}
н/о н/о +26.8 +13.9 45 +29 +29 жарко 1015.6 1006.8
11 18.09 Ю 1-3
{3}
н/о н/о +25.3 +14.7 52 +28 +28 жарко 1015.5 1006.7
12 18.09 Ю 1-2
{2}
н/о н/о +26.4 +13.2 44 +28 +28 жарко 1015.1 1006.3
13 18.09 Ю 1-2
{3}
н/о н/о +26.7 +13.8 45 +29 +29 жарко 1014.8 1006.0
14 18.09 Ю 2-3
{3}
н/о н/о +24.3 +15.0 56 +27 +27 жарко 1014.6 1005.7
15 18.09 ЮЗ 2-3
{3}
20 км 8/0
[Ac lent]
+23.8 +15.8 61 +27 +29 жарко 1014.1 1005.2
16 18.09 ЮЗ 3-4
{4}
н/о н/о +22.7 +17.2 71 +28 +28 душно 1014.5 1005.6
17 18.09 З 3-4
{4}
н/о н/о +22.4 +16.9 71 +27 +27 душно 1015.5 1006.6
18 18.09 СЗ 2
{9}
8000 м гроза, ливневой дождь 8/8 1500 м
[Frnb Ac lent]
+20.5 +17.9 85 +25 +25 комфорт 1016.7 1007.7 +20.5 +27.0 1
19 18.09 С 3-4
{6}
н/о н/о +20.2 +18.1 88 +24 +24 комфорт 1016.3 1007.3 6
20 18.09 С 2-4
{5}
н/о {дождь} н/о +19.5 +17.6 89 +22 +22 комфорт 1016.5 1007.5 2
21 18.09 С 3-4
{5}
н/о н/о +20.2 +16.0 77 +23 +23 комфорт 1016.5 1007.5 8
22 18.09 СЗ 3-5
{5}
н/о н/о +20.6 +15.6 73 +24 +24 комфорт 1016.5 1007.5
23 18.09 З 3-4
{5}
н/о н/о +21.5 +16.5 73 +25 +25 комфорт 1016.8 1007.8
00 19.09 СЗ 3-5
{5}
н/о н/о +19.3 +15.4 78 +21 +21 комфорт 1017.4 1008.4
01 19.09 СЗ 3-5
{5}
н/о н/о +19.8 +15.2 75 +22 +22 комфорт 1017.0 1008.0
02 19.09 С 2-4
{4}
н/о н/о +21.1 +13.5 62 +24 +24 комфорт 1016.9 1007.9
03 19.09 С 3-4
{4}
15 км 9/9 1000 м
[St]
+20.3 +13.0 63 +23 +23 комфорт 1016.4 1007.4
04 19.09 СВ 2-3
{5}
н/о н/о +20.2 +12.2 60 +23 +23 комфорт 1016.4 1007.4
05 19.09 С 2-3
{3}
н/о н/о +20.1 +12.1 60 +22 +22 комфорт 1016.5 1007.5
06 19.09 С 2
{6}
15 км 9/9 1000 м
[St Ac As]
+20.2 +12.7 62 +23 +23 комфорт 1017.0 1008.0 +19.1 +22.1
07 19.09 СЗ 1-1
{3}
н/о н/о +20.2 +13.4 65 +23 +23 комфорт 1017.4 1008.4
08 19.09 ЮЗ 2-2
{2}
н/о н/о +20.7 +16.3 76 +25 +25 комфорт 1017.9 1008.9
09 19.09 З 2-3
{3}
н/о н/о +20.7 +16.3 76 +25 +25 комфорт 1018.1 1009.1
10 19.09 ЮЗ 2-3
{3}
н/о н/о +21.9 +16.6 72 +26 +26 душно 1018.2 1009.2
11 19.09 Ю 2-3
{3}
н/о н/о +23.2 +17.0 68 +28 +28 душно 1017.6 1008.7
12 19.09 Ю 2
{6}
15 км 9/9 1000 м
[St Ac As]
+23.0 +17.9 73 +28 +30 душно 1017.3 1008.4
13 19.09 Ю 2-2
{3}
н/о н/о +23.9 +18.1 70 +28 +28 душно 1016.8 1007.9
14 19.09 Ю 2-3
{3}
н/о н/о +23.9 +18.3 71 +28 +28 душно 1016.2 1007.3
15 19.09 Ю 1-2
{3}
15 км 4/0
[Ac lent]
+24.8 +16.5 60 +28 +32 жарко 1016.0 1007.1
16 19.09 ЮЗ 2-3
{3}
н/о н/о +23.0 +15.8 64 +27 +27 душно 1016.0 1007.1
17 19.09 ЮЗ 2-3
{3}
н/о н/о +23.7 +11.7 47 +25 +25 комфорт 1016.2 1007.3
18 19.09 штиль 0-1
{3}
н/о н/о +22.8 +13.3 55 +26 +26 жарко 1016.9 1008.0 +20.1 +24.8
19 19.09 Ю 1-1
{2}
н/о н/о +21.5 +10.9 51 +23 +23 комфорт 1018.2 1009.2
20 19.09 В 2-3
{3}
н/о н/о +21.6 +17.6 78 +26 +26 душно 1018.9 1009.9
21 19.09 СВ 2-3
{5}
н/о н/о +21.9 +11.0 50 +24 +24 комфорт 1019.4 1010.4
22 19.09 С 3-4
{4}
н/о н/о +20.9 +8.8 46 +23 +23 комфорт 1019.5 1010.5
23 19.09 С 3-6
{6}
н/о н/о +20.5 +8.5 46 +22 +22 комфорт 1019.5 1010.5
00 20.09 СВ 3-5
{5}
н/о н/о +19.9 +8.2 47 +21 +21 комфорт 1019.7 1010.6
01 20.09 СВ 4-5
{6}
н/о н/о +19.4 +7.8 47 +20 +20 1019.5 1010.4
02 20.09 СВ 4-5
{6}
н/о н/о +18.9 +7.9 49 +19 +19 1019.5 1010.4
03 20.09 СВ 3-5
{5}
н/о н/о +18.7 +7.8 49 +19 +19 1019.5 1010.4
04 20.09 С 3-4
{5}
н/о н/о +18.6 +7.4 48 +19 +19 1019.5 1010.4
05 20.09 С 3-4
{5}
н/о н/о +18.4 +7.5 49 +19 +19 1019.7 1010.6
06 20.09 С 5
{9}
20 км 4/3 800 м
[Frnb Ac und]
+18.7 +7.8 49 +19 +19 1020.1 1011.0 +18.3 +22.9
07 20.09 С 3-4
{4}
н/о н/о +19.5 +8.2 48 +21 +21 комфорт 1020.6 1011.5
08 20.09 СВ 3-4
{4}
н/о н/о +20.7 +9.3 48 +23 +23 комфорт 1020.9 1011.9
09 20.09 СВ 2-4
{4}
20 км 9/9 1200 м
[Sc]
+21.7 +11.4 52 +24 +24 комфорт 1021.1 1012.1
10 20.09 В 2-3
{4}
н/о н/о +23.0 +13.7 56 +26 +26 жарко 1021.1 1012.1
11 20.09 В 2-4
{4}
н/о н/о +23.0 +15.1 61 +27 +27 душно 1021.1 1012.1
12 20.09 В 2
{7}
12 км 9/8 1200 м
[Sc Ac trans Cs]
+24.2 +17.7 67 +28 +30 душно 1020.9 1012.0
13 20.09 ЮВ 2-4
{4}
н/о н/о +23.6 +18.9 75 +28 +28 душно 1020.6 1011.7
14 20.09 ЮВ 2-3
{4}
н/о н/о +24.3 +18.5 70 +29 +29 душно 1020.2 1011.3
15 20.09 Ю 2-3
{3}
н/о н/о +24.0 +18.0 69 +28 +28 душно 1019.9 1011.0
16 20.09 Ю 2-3
{3}
н/о н/о +22.4 +17.5 74 +27 +27 душно 1019.5 1010.5
17 20.09 Ю 2-3
{3}
н/о н/о +21.5 +17.7 79 +26 +26 душно 1019.3 1010.3
18 20.09 Ю 2
{5}
12 км 4/0
[As op]
+21.0 +18.0 83 +26 +26 душно 1019.3 1010.3 +18.7 +24.4
19 20.09 Ю 2-3
{3}
н/о н/о +21.0 +18.4 85 +26 +26 душно 1019.4 1010.4
20 20.09 ЮВ 2-3
{4}
н/о н/о +20.8 +18.4 86 +26 +26 душно 1019.5 1010.5
21 20.09 ЮВ 2-5
{5}
н/о н/о +20.7 +18.3 86 +25 +25 комфорт 1019.6 1010.6
22 20.09 ЮВ 2-5
{5}
н/о н/о +20.8 +18.0 84 +25 +25 комфорт 1019.3 1010.3
23 20.09 ЮВ 2-4
{5}
н/о н/о +20.8 +17.8 83 +25 +25 комфорт 1019.1 1010.1
00 21.09 ЮВ 3-5
{5}
н/о н/о +20.8 +18.0 84 +25 +25 комфорт 1019.0 1010.0
01 21.09 В 3-5
{6}
н/о н/о +20.9 +17.9 83 +25 +25 комфорт 1018.8 1009.8
02 21.09 В 3-6
{6}
н/о н/о +21.0 +18.0 83 +26 +26 душно 1018.4 1009.4
03 21.09 В 3-6
{6}
н/о н/о +21.2 +17.6 80 +25 +25 комфорт 1018.0 1009.0
04 21.09 В 4-6
{7}
н/о н/о +21.2 +18.0 82 +25 +25 комфорт 1017.7 1008.7
05 21.09 В 3-6
{8}
н/о н/о +21.2 +17.4 79 +25 +25 комфорт 1017.2 1008.2
06 21.09 В 5-16
{16}
10 км 10/4 800 м
[St Ac As]
+21.2 +17.2 78 +25 +25 комфорт 1017.6 1008.6 +20.6 +21.3
07 21.09 В 4-9
{9}
н/о н/о +21.2 +17.0 77 +25 +25 комфорт 1017.4 1008.4
08 21.09 В 4-8
{8}
н/о н/о +20.2 +17.4 84 +23 +23 комфорт 1017.4 1008.4 0.6
09 21.09 В 5-18
{20}
6000 м слаб. дождь 10/4 800 м
[St Ac As]
+21.0 +17.2 79 +25 +26 комфорт 1017.3 1008.3 0.8
10 21.09 В 6-11
{12}
н/о н/о +20.1 +17.5 85 +23 +23 комфорт 1017.2 1008.2 3
11 21.09 В 4-9
{12}
н/о н/о +19.3 +17.8 91 +21 +21 комфорт 1017.2 1008.2 1
12 21.09 В 4-9
{9}
н/о н/о +19.1 +17.4 90 +21 +21 комфорт 1016.7 1007.7 6
13 21.09 В 5-10
{11}
н/о {дождь} н/о +19.2 +17.3 89 +21 +21 комфорт 1015.8 1006.8 0.4
14 21.09 В 5-10
{10}
н/о н/о +19.3 +17.1 87 +21 +21 комфорт 1013.4 1004.4 0.0
15 21.09 В 4-8
{12}
н/о н/о +19.3 +16.9 86 +21 +21 комфорт 1014.6 1005.6 0.4
16 21.09 В 3-6
{8}
н/о н/о +19.6 +17.4 87 +22 +22 комфорт 1014.9 1005.9 0.2
17 21.09 В 4-8
{8}
н/о н/о +19.6 +17.0 85 +22 +22 комфорт 1014.5 1005.5 0.0
18 21.09 СВ 3
{13}
6000 м слаб. дождь 10/10 480 м
[Frnb]
+19.5 +16.9 85 +22 +22 комфорт 1014.1 1005.1 +18.9 +21.3 0.2
19 21.09 В 3-5
{6}
н/о н/о +19.6 +17.4 87 +22 +22 комфорт 1014.3 1005.3 0.0
20 21.09 В 3-6
{6}
н/о н/о +19.8 +17.4 86 +23 +23 комфорт 1014.2 1005.2 0.0
21 21.09 С 3-4
{7}
н/о н/о +18.2 +16.0 87 +19 +19 1014.0 1005.0 0.0
22 21.09 С 3-4
{4}
н/о н/о +17.6 +15.9 90 +18 +18 1013.7 1004.6 0.2
23 21.09 СВ 3-5
{5}
н/о н/о +17.1 +15.6 91 +17 +17 1013.2 1004.1 0.6
00 22.09 С 3-4
{5}
н/о н/о +17.4 +15.4 88 +18 +18 1013.5 1004.4 0.8
01 22.09 С 3-4
{5}
н/о н/о +18.1 +16.1 88 +19 +19 1013.5 1004.5
02 22.09 ЮВ 2-4
{4}
н/о н/о +19.9 +18.7 93 +24 +24 комфорт 1012.7 1003.7
03 22.09 ЮВ 2-5
{5}
6000 м в посл. час ливневой дождь 10/10 400 м
[Frnb]
+19.9 +18.7 93 +24 +24 комфорт 1012.1 1003.1
04 22.09 ЮВ 3-6
{6}
н/о {дождь} н/о +19.8 +18.5 92 +23 +23 комфорт 1011.9 1002.9 0.0
05 22.09 ЮВ 3-6
{7}
н/о н/о +20.0 +18.5 91 +24 +24 комфорт 1011.8 1002.8 0.0
06 22.09 В 3
{13}
6000 м в посл. час дождь 10/10 400 м
[Frnb]
+20.2 +18.5 90 +24 +24 комфорт 1011.8 1002.9 +17.1 +20.2 0.0
07 22.09 СВ 3-5
{6}
н/о н/о +18.5 +16.5 88 +20 +20 1012.2 1003.2
08 22.09 СВ 3-4
{5}
н/о {дождь} н/о +18.3 +16.6 90 +19 +19 1012.7 1003.7 0.0
09 22.09 СВ 2
{8}
10 км в посл. час дождь 10/10 400 м
[Frnb]
+18.9 +17.2 90 +21 +21 комфорт 1012.9 1003.9 0.0
10 22.09 В 2-5
{5}
н/о н/о +19.7 +18.9 95 +23 +23 комфорт 1012.8 1003.8 4
11 22.09 ЮВ 3-6
{8}
н/о н/о +20.1 +18.2 89 +24 +24 комфорт 1012.2 1003.2 0.2
12 22.09 ЮВ 3 10 км слаб. дождь 10/10 400 м
[Frnb]
+20.3 +18.4 89 +24 +24 комфорт 1012.2 1003.3 4

 

Местоположение метеостанции Сете (Франция): широта 42.40 долгота 3.68 высота над уровнем моря 85 м.

В архиве по умолчанию представлена погода в Сете за последнюю неделю. Архивные данные за месяц целиком и за предыдущие месяцы, начиная с января 2011 года, Вы можете получить, выбрав интересующий диапазон дат из раскрывающегося списка и нажав кнопку "Ввод!".


*Определитесь, кто Вы:
робот инопланетянин человек

Внимание! Время в таблицах - всемирное. Для получения местного времени необходимо прибавить поправку, которая равна 1 ч.

Смотрите также архив погоды в соседних городах и на ближайших метеорологических станциях:

Погода на Мысе Беар (Франция) (47 км)
Погода в Перпиньяне (Франция) (76 км)
Погода в Лёкате (Франция) (76 км)
Погода в Поркересе (Испания) (83 км)
Погода в Жероне (Испания) (93 км)
Погода в Безье (Франция) (106 км)
Погода в Санта-Сусанне (Испания) (116 км)
Погода в Риполе (Испания) (124 км)
Погода в Ареньс-де-Маре (Испания) (130 км)
Погода в Монпелье (Франция) (133 км)

Пояснения к столбцам:

Ветер - указаны скорость ветра в м/с - средняя за 10 мин, порывы в срок и между сроками (в фигурных скобках) и направление, откуда дует ветер: С - северный, СВ - северо-восточный, В - восточный, ЮВ - юго-восточный, Ю - южный, ЮЗ - юго-западный, З - западный, СЗ - северо-западный.
Видимость - горизонтальная дальность видимости в метрах или километрах. При видимости от 1 до 10 км при отсутствии осадков обычно наблюдается дымка, при ухудшении видимости до 1 км и менее - туман. В сухую погоду видимость может ухудшаться дымом, пылью или мглою.
Явления - указаны атмосферные явления, наблюдавшиеся в срок или в последний час перед сроком; фигурными скобками обозначены явления, наблюдавшиеся между сроками (за 1-3 часа до срока); квадратными скобками обозначены град или гололедные отложения с указанием их диаметра в мм.
Облачность - указаны через наклонную черту общая и нижняя облачность в баллах и высота нижней границы облаков в метрах; квадратными скобками обозначены формы облаков: Ci - перистые, Cs - перисто-слоистые, Cc - перисто-кучевые, Ac - высококучевые, As - высокослоистые, Sc - слоисто-кучевые, Ns - слоисто-дождевые, Cu - кучевые, Cb - кучево-дождевые. Подробнее классификацию облаков см. в Атласе облаков (PDF).
T - Температура воздуха - температура, измеренная на высоте 2 м над землей.
Td - Температура точки росы - температура, при понижении до которой содержащийся в воздухе водяной пар достигнет насыщения.
f - Относительная влажность воздуха - влажноcть воздуха, измеренная на высоте 2 м над землей.
Te - Эффективная температура - температура, которую ощущает одетый по сезону человек в тени. Характеристика душности погоды. При расчете учитывается влияние влажности воздуха и скорости ветра на теплоощущения человека.
Tes - Эффективная температура на солнце - температура, которую ощущает человек, с поправкой на солнечный нагрев. Характеристика знойности погоды. Зависит от высоты солнца над горизонтом, облачности и скорости ветра. Ночью, в пасмурную погоду, а также при ветре 12 м/с и более поправка равна нулю.
P - Атмосферное давление - приведенное к уровню моря атмосферное давление.
Po - Атмосферное давление - измеренное на уровне метеостанции атмосферное давление.
Tmin - Минимальная температура - минимум температуры воздуха на высоте 2 м над землей.
Tmax - Максимальная температура - максимум температуры воздуха на высоте 2 м над землей.
R - Количество осадков - Количество выпавших осадков за период времени, мм. При наведении курсора мыши на число - период времени, за который выпало указанное количество осадков.
R24 - Количество осадков - Количество выпавших осадков за 24 часа, мм.
S - Снежный покров - Высота снежного покрова, см. При наведении курсора мыши на число - состояние снежного покрова и степень покрытия местности в баллах.